This demonstration page uses our WeatherBlox Daily Observations layout. Learn more.

Left ArrowRight Arrow

Hourly Observations for October 16, 2016

Temp ( °F °C ) Dew Point ( °F °C ) Humidity (%) Winds ( mph kmh ) Pressure ( in mb ) Visibility ( mi km ) Precip ( " mm )
12:54 am 00:54 Clear with Mist and Fog 55 12.8 54 12.2 96 96 N 7 11 29.84 1010 6 9.65604 0 0
1:54 am 01:54 Clear with Mist and Fog 55 12.8 54 12.2 96 96 NNW 3 6 29.83 1010 4 6.43736 0 0
2:07 am 02:07 Mostly Clear with Mist and Fog 53 11.7 53 11.7 100 100 N 5 7 29.83 1010 4 6.43736 0 0
2:10 am 02:10 Mostly Cloudy with Mist and Fog 52 11 52 11 100 100 N 5 7 29.83 1010 1 1.60934 0 0
2:17 am 02:17 Mostly Cloudy with Fog 53 11.7 53 11.7 100 100 NNW 3 6 29.83 1010 0.5 0.80467 0 0
2:21 am 02:21 Mostly Clear with Mist and Fog 53 11.7 53 11.7 100 100 N 5 7 29.83 1010 1.25 2.011675 0 0
2:24 am 02:24 Mostly Clear with Mist and Fog 54 12 54 12 100 100 N 5 7 29.83 1010 4 6.43736 0 0
2:34 am 02:34 Mostly Clear with Mist and Fog 54 12.2 53 11.7 97 97 Calm 29.83 1010 6 9.65604 0 0
2:54 am 02:54 Clear with Mist and Fog 52 11.1 52 11.1 100 100 N 6 9 29.81 1010 5 8.0467 0 0
3:04 am 03:04 Clear with Mist and Fog 54 12 52 11 94 94 NNW 5 7 29.83 1010 6 9.65604 0 0
3:38 am 03:38 Partly Cloudy with Mist and Fog 54 12 52 11 94 94 Calm 29.83 1010 5 8.0467 0 0
3:47 am 03:47 Mostly Cloudy with Mist and Fog 53 11.7 53 11.7 100 100 N 3 6 29.83 1010 5 8.0467 0 0
3:54 am 03:54 Mostly Cloudy with Mist and Fog 53 11.7 53 11.7 100 100 N 5 7 29.8 1009 5 8.0467 0 0
4:12 am 04:12 Cloudy with Mist and Fog 55 12.8 54 12.2 96 96 N 6 9 29.83 1010 6 9.65604 0 0
4:29 am 04:29 Cloudy with Mist and Fog 55 12.8 54 12.2 96 96 N 6 9 29.83 1010 1.75 2.816345 0 0
4:38 am 04:38 Mostly Cloudy with Fog 54 12 54 12 100 100 N 7 11 29.83 1010 0.25 0.402335 0 0
4:52 am 04:52 Mostly Cloudy with Fog 54 12 54 12 100 100 NNW 7 11 29.83 1010 0.25 0.402335 0 0
4:54 am 04:54 Mostly Cloudy with Fog 55 12.8 54 12.2 96 96 NNW 6 9 29.8 1009 0.25 0.402335 0 0
5:18 am 05:18 Mostly Cloudy with Fog 55 13 55 13 100 100 NNW 5 7 29.83 1010 0.25 0.402335 0 0
5:49 am 05:49 Mostly Cloudy with Fog 55 13 55 13 100 100 N 6 9 29.83 1010 0.25 0.402335 0 0
5:54 am 05:54 Mostly Cloudy with Fog 56 13.3 55 12.8 97 97 NNW 5 7 29.8 1009 0.25 0.402335 0 0
6:54 am 06:54 Mostly Cloudy with Fog 58 14.4 57 13.9 97 97 E 6 9 29.78 1008 0.25 0.402335 0 0
7:36 am 07:36 Mostly Cloudy with Fog 59 15 59 15 100 100 Calm 29.77 1008 0.25 0.402335 0 0
7:54 am 07:54 Mostly Cloudy with Fog 59 15 59 15 100 100 Calm 29.77 1008 0.25 0.402335 0 0
8:54 am 08:54 Mostly Cloudy with Fog 62 16.7 62 16.7 100 100 ESE 5 7 29.77 1008 0.25 0.402335 0 0
9:21 am 09:21 Mostly Cloudy with Fog 63 17.2 63 17.2 100 100 ESE 7 11 29.74 1007 0.5 0.80467 0 0
9:39 am 09:39 Cloudy with Mist and Fog 64 17.8 64 17.8 100 100 ESE 8 13 29.74 1007 1.75 2.816345 0 0
9:47 am 09:47 Cloudy with Mist and Fog 64 17.8 64 17.8 100 100 ESE 8 13 29.74 1007 2.5 4.02335 0 0
9:54 am 09:54 Cloudy with Mist and Fog 64 17.8 64 17.8 100 100 ESE 8 13 29.75 1007 3 4.82802 0 0
10:54 am 10:54 Cloudy with Mist and Fog 66 18.9 65 18.3 96 96 SSE 12 19 29.73 1007 5 8.0467 0 0
11:54 am 11:54 Cloudy with Mist and Fog 67 19.4 66 18.9 97 97 SE 12 19 29.7 1006 4 6.43736 0 0
12:40 pm 12:40 Cloudy with Mist and Fog 70 21 66 19 88 88 SE 12 19 29.65 1004 6 9.65604 0 0
12:54 pm 12:54 Cloudy with Mist and Fog 69 20.6 66 18.9 90 90 SSE 14 22 29.67 1005 6 9.65604 0 0
1:34 pm 13:34 Cloudy 72 22 66 19 83 83 SSE 15 24 29.59 1002 9 14.48406 0 0
1:54 pm 13:54 Cloudy 72 22.2 66 18.9 82 82 SSE 15 24 29.62 1003 10 16.0934 0 0
2:10 pm 14:10 Cloudy 72 22 66 19 83 83 S 13 20 29.59 1002 10 16.0934 0 0
2:31 pm 14:31 Cloudy 75 23.9 67 19.4 76 76 SSE 15 24 29.56 1001 10 16.0934 0 0
2:54 pm 14:54 Mostly Cloudy 76 24.4 66 18.9 72 72 S 16 26 29.6 1002 10 16.0934 0 0
3:01 pm 15:01 Partly Cloudy 79 26 66 19 65 65 SSE 17 28 29.56 1001 10 16.0934 0 0
3:54 pm 15:54 Mostly Sunny 82 27.8 65 18.3 56 56 S 21 33 29.55 1001 10 16.0934 0 0
4:54 pm 16:54 Sunny 82 27.8 65 18.3 56 56 S 15 24 29.54 1000 10 16.0934 0 0
5:54 pm 17:54 Sunny 79 26.1 65 18.3 62 62 S 9 15 29.54 1000 10 16.0934 0 0
6:54 pm 18:54 Clear 74 23.3 64 17.8 71 71 S 7 11 29.55 1001 10 16.0934 0 0
7:54 pm 19:54 Clear 65 18.3 61 16.1 87 87 Calm 29.57 1002 10 16.0934 0 0
8:54 pm 20:54 Clear 66 18.9 62 16.7 87 87 Calm 29.58 1002 10 16.0934 0 0
9:54 pm 21:54 Clear 61 16.1 60 15.6 97 97 Calm 29.6 1002 10 16.0934 0 0
10:54 pm 22:54 Clear 59 15 58 14.4 96 96 N 7 11 29.61 1003 9 14.48406 0 0
11:54 pm 23:54 Clear 59 15 58 14.4 96 96 Calm 29.59 1002 8 12.87472 0 0

Powered by AerisWeather